This demonstration page uses our WeatherBlox Daily Observations layout. Learn more.

38.89511, -77.03637

Hourly Observations for October 5, 2018

Temp ( °F °C ) Dew Point ( °F °C ) Humidity (%) Winds ( mph kmh ) Pressure ( in mb ) Visibility ( mi km ) Precip ( " mm )
12:52 am 00:52 Cloudy 76 24.4 70 21.1 82 82 ENE 7 11 29.99 1016 10 16.0934 0 0
1:52 am 01:52 Cloudy 75 23.9 71 21.7 88 88 NNE 5 7 29.98 1015 10 16.0934 0 0
2:52 am 02:52 Mostly Cloudy 77 25 70 21.1 79 79 N 9 15 29.98 1015 10 16.0934 0 0
3:52 am 03:52 Cloudy 76 24.4 70 21.1 82 82 NNE 12 19 30 1016 10 16.0934 0 0
4:02 am 04:02 Cloudy 76 24.4 70 21.1 82 82 NNE 10 17 30 1016 10 16.0934 0 0
4:30 am 04:30 Cloudy 76 24.4 70 21.1 82 82 NNE 12 19 30 1016 10 16.0934 0 0
4:52 am 04:52 Cloudy 76 24.4 70 21.1 82 82 NE 12 19 30 1016 10 16.0934 0 0
5:43 am 05:43 Cloudy 74 23.3 65 18.3 74 74 NE 21 33 30.03 1017 10 16.0934 0 0
5:52 am 05:52 Cloudy 74 23.3 60 15.6 62 62 NE 15 24 30.04 1017 10 16.0934 0 0
6:40 am 06:40 Cloudy 73 22.8 59 15 62 62 NE 10 17 30.06 1018 10 16.0934 0 0
6:52 am 06:52 Cloudy 72 22.2 59 15 64 64 NE 10 17 30.07 1018 10 16.0934 0 0
7:52 am 07:52 Cloudy 71 21.7 55 12.8 57 57 NNE 13 20 30.1 1019 10 16.0934 0 0
8:52 am 08:52 Cloudy 70 21.1 54 12.2 57 57 NNE 16 26 30.13 1020 10 16.0934 0 0
8:59 am 08:59 Cloudy 70 21.1 55 12.8 59 59 NNE 16 26 30.12 1020 10 16.0934 0 0
9:52 am 09:52 Cloudy 70 21.1 56 13.3 61 61 NNE 13 20 30.14 1021 10 16.0934 0 0
10:52 am 10:52 Cloudy 69 20.6 56 13.3 63 63 NE 10 17 30.14 1021 10 16.0934 0 0
11:52 am 11:52 Cloudy 68 20 57 13.9 68 68 NNE 9 15 30.15 1021 10 16.0934 0 0
12:52 pm 12:52 Cloudy 68 20 57 13.9 68 68 NE 13 20 30.15 1021 10 16.0934 0 0
1:52 pm 13:52 Cloudy 68 20 56 13.3 65 65 NE 8 13 30.14 1021 10 16.0934 0 0
2:52 pm 14:52 Cloudy 67 19.4 57 13.9 71 71 NNE 9 15 30.14 1021 10 16.0934 0 0
3:52 pm 15:52 Cloudy 67 19.4 58 14.4 73 73 NNE 9 15 30.13 1020 10 16.0934 0 0
4:52 pm 16:52 Cloudy 68 20 58 14.4 70 70 NE 7 11 30.13 1020 10 16.0934 0 0
5:52 pm 17:52 Cloudy 67 19.4 59 15 76 76 ENE 8 13 30.14 1021 10 16.0934 0 0
6:52 pm 18:52 Cloudy 67 19.4 59 15 76 76 NE 7 11 30.14 1021 10 16.0934 0 0
7:52 pm 19:52 Cloudy 67 19.4 60 15.6 79 79 E 7 11 30.15 1021 10 16.0934 0 0
8:52 pm 20:52 Cloudy 66 18.9 60 15.6 81 81 ESE 6 9 30.16 1021 10 16.0934 0 0
9:52 pm 21:52 Cloudy 67 19.4 60 15.6 79 79 E 5 7 30.16 1021 10 16.0934 0 0
10:52 pm 22:52 Cloudy 67 19.4 61 16.1 81 81 Calm 30.17 1022 10 16.0934 0 0
11:52 pm 23:52 Cloudy 67 19.4 62 16.7 84 84 NNE 3 6 30.18 1022 10 16.0934 0 0

Powered by AerisWeather